Location: Starlight Observatory
(38.4029°N, 85.8936°W)
Time: 22:14:12
(UTC-04:00)

Iridium 62 - Visible Passes

Search period start: 07 July 2015 00:00
Search period end: 17 July 2015 00:00
Orbit: 776 x 779 km, 86.4° (Epoch: 07 July)

Date Brightness Start Highest point End Pass type
(mag) Time Alt. Az. Time Alt. Az. Time Alt. Az.
07 Jul 6.6 04:47:09 10° N 04:52:14 52° E 04:57:19 10° SSE visible
08 Jul 7.7 04:14:06 10° NNE 04:18:31 28° E 04:23:00 10° SE visible
08 Jul 6.7 05:54:43 10° NNW 05:59:15 30° W 06:03:41 10° SW visible
09 Jul 8.4 03:41:46 10° NE 03:44:38 15° ENE 03:47:45 10° ESE visible
09 Jul 6.0 05:20:45 10° NNW 05:25:52 56° W 05:30:56 10° SSW visible
10 Jul 5.9 04:47:08 10° N 04:52:22 77° E 04:57:35 10° S visible
11 Jul 7.0 04:13:51 10° NNE 04:18:45 41° E 04:23:40 10° SSE visible
11 Jul 7.2 05:55:21 10° NW 05:59:14 21° W 06:02:56 10° SW visible
12 Jul 7.9 03:41:01 10° NNE 03:44:58 22° ENE 03:49:03 10° SE visible
12 Jul 6.4 05:21:04 10° NNW 05:25:53 38° W 05:30:23 11° SSW visible
13 Jul 8.5 03:09:21 10° NE 03:11:00 12° ENE 03:13:00 10° E visible
13 Jul 5.8 04:47:14 10° N 04:52:27 73° W 04:56:27 17° S visible
14 Jul 6.3 04:13:45 10° N 04:18:55 60° E 04:22:32 20° SSE visible
14 Jul 7.6 05:56:23 10° NW 05:59:10 14° W 06:01:42 10° WSW visible
15 Jul 7.3 03:40:37 10° NNE 03:45:14 32° E 03:48:38 16° SE visible
15 Jul 6.9 05:21:32 10° NNW 05:25:52 26° W 05:29:05 15° SW visible
16 Jul 8.2 03:08:04 10° NE 03:11:23 17° ENE 03:14:47 10° ESE visible
16 Jul 6.1 04:47:28 10° NNW 04:52:30 49° W 04:55:13 25° SSW visible
